Temperature
7 6 6 6 6 7 7 7 7 7 7 6 6 6 7 7 6 6 6 7 7 8 8 8 8 8 8 8 8 8 8 8 8 8 7 7 8 7 7 7 7 7 7 7
6 6 7 7 7 7 7 6 6 6 6 6 5 5 6 6 6 6 6 7 7 7 8 8 8 8 8 8 8 8 7 7 7 7 7 7 7 7 7 7 7 7 6 6
6 7 7 7 6 6 6 6 6 6 6 5 5 5 6 6 6 6 7 7 7 7 8 8 8 8 8 7 7 7 7 7 7 7 6 6 6 6 6 6 6 6 6 6
6 6 7 7 6 6 6 6 6 6 5 4 5 5 6 6 5 5 6 6 7 7 7 7 7 8 7 7 7 7 7 7 6 6 6 6 6 6 6 6 6 6 6 6
6 6 6 6 6 6 6 6 5 5 4 4 4 4 5 5 5 6 5 6 7 7 7 7 7 7 7 7 7 6 6 6 6 6 6 6 6 5 5 5 5 5 5 5
5 6 6 6 6 6 5 5 4 3 3 4 4 4 5 4 5 6 6 6 6 7 7 7 6 6 6 6 6 6 6 6 6 6 6 5 5 5 5 5 5 5 5 5
5 6 5 6 5 5 5 5 4 4 3 4 4 4 4 5 5 5 5 6 6 6 6 6 6 6 6 6 6 6 6 6 6 5 5 5 5 5 5 5 4 4 4 4
5 5 5 5 5 5 4 5 5 5 4 4 3 3 5 5 5 5 6 6 6 6 6 6 6 6 6 6 5 5 5 5 5 5 5 5 5 4 4 4 4 4 4 4
4 4 5 5 5 5 4 4 4 3 3 3 3 3 4 5 5 4 5 5 5 6 6 6 6 6 5 5 5 5 5 5 5 5 5 4 4 4 4 4 3 3 3 3
4 4 4 4 5 4 4 3 2 3 4 4 4 3 4 5 5 5 4 4 5 5 5 5 5 5 5 5 5 5 5 5 5 4 4 4 4 4 4 3 3 3 3 3
4 3 3 4 4 4 3 3 3 2 2 3 4 5 5 4 5 4 3 4 5 5 5 5 5 5 5 4 4 4 4 4 4 4 4 4 3 3 3 3 3 3 3 2
3 2 2 3 3 3 3 3 2 3 2 1 2 4 5 4 3 3 3 4 5 5 5 5 4 4 4 4 4 4 4 4 4 4 3 3 3 3 3 3 2 2 2 2
3 2 3 3 3 2 3 2 2 2 1 1 1 4 4 3 3 3 3 4 4 5 4 4 4 4 4 4 4 4 4 4 4 3 3 3 3 3 3 2 2 2 2 2
3 2 3 4 4 2 2 2 1 1 1 1 2 3 4 4 3 3 4 4 4 4 4 4 4 4 3 3 4 4 4 3 3 3 3 3 2 2 2 2 2 2 1 1
2 2 1 2 2 2 2 2 1 1 1 2 3 2 4 4 3 3 4 4 4 4 4 4 3 3 3 3 3 3 3 3 3 3 3 2 2 2 2 2 1 1 1 1
1 1 1 1 2 1 2 2 2 2 2 2 2 2 3 3 3 3 3 3 3 3 3 3 3 3 3 3 3 3 3 3 3 3 2 2 2 2 2 2 1 1 1 1
0 1 1 1 1 1 1 2 1 1 1 1 2 3 3 2 2 2 3 3 3 3 3 3 3 2 2 2 2 2 3 3 2 2 2 2 2 1 1 1 1 1 0 0
0 0 -0 0 1 2 3 2 2 2 1 1 1 2 2 2 2 3 3 3 3 3 3 2 2 2 2 2 2 2 2 2 2 2 2 1 1 1 1 1 1 0 0 -0
0 0 -0 -0 0 1 2 2 1 1 1 1 1 1 1 1 1 2 3 3 3 3 3 2 2 2 2 2 2 2 2 2 2 2 1 1 1 1 1 0 0 0 -0 -0
-1 -0 -0 -1 1 2 3 2 2 2 2 2 1 1 1 0 0 1 3 3 3 3 2 2 2 2 2 1 1 1 1 1 1 1 1 1 0 0 0 0 -0 -0 -0 -0
-1 -1 -0 -1 -0 1 2 1 1 2 3 3 2 2 1 0 1 3 3 3 2 2 2 2 2 1 1 1 1 1 1 1 1 1 1 0 0 -0 -0 -0 -0 -1 -1 -1
-1 -1 -1 -1 -0 1 1 0 1 2 3 3 3 3 2 2 2 2 2 2 2 2 2 1 1 1 1 1 1 1 1 1 0 0 0 -0 -0 -0 -1 -1 -1 -1 -1 -1
-1 -0 -1 -0 1 2 2 2 3 3 3 3 3 3 3 2 2 2 2 2 2 1 1 1 1 1 1 0 0 0 0 0 0 -0 -0 -0 -1 -1 -1 -1 -1 -1 -1 -2
-2 -2 -2 -2 -1 0 1 2 3 3 3 3 3 3 2 2 2 2 1 1 1 1 1 1 0 0 0 0 0 0 0 -0 -0 -0 -0 -1 -1 -1 -1 -1 -1 -1 -1 -2
-1 -2 -2 -2 -1 -0 1 2 3 3 3 3 3 3 2 2 2 1 1 1 1 0 0 0 0 0 0 0 0 -0 -0 -1 -1 -1 -1 -1 -1 -1 -1 -1 -2 -2 -2 -2
-2 -2 -1 0 1 0 2 3 3 3 2 2 2 2 2 2 1 1 1 1 0 0 0 -0 -0 -0 -0 -0 -0 -0 -1 -1 -1 -1 -1 -1 -1 -1 -2 -2 -2 -2 -2 -2
Wind_Speed
2 3 4 6 6 4 3 3 5 5 3 2 6 11 13 8 6 8 7 6 6 6 5 3 3 2 2 2 2 3 3 3 3 2 2 1 2 2 1 1 2 2 2 2
3 3 5 3 3 3 3 3 5 4 2 2 6 11 11 8 7 8 8 7 7 5 3 3 2 2 3 4 4 4 4 4 4 3 2 1 1 1 2 1 2 2 2 2
6 3 2 4 3 3 4 5 5 4 4 2 4 9 7 5 5 5 6 6 6 6 6 5 4 3 3 4 4 4 4 4 4 3 2 1 1 1 0 1 1 2 2 2
3 3 2 3 3 4 4 4 4 3 1 4 1 6 8 5 6 6 7 6 6 6 5 5 4 4 4 5 4 4 4 4 3 3 3 3 2 3 3 2 2 2 2 2
3 2 3 4 4 5 4 1 1 2 2 3 2 4 9 4 6 7 7 7 6 5 5 5 5 6 5 4 3 3 3 3 3 3 4 4 3 3 1 1 2 2 2 2
3 2 2 3 0 3 3 3 3 3 2 4 5 5 8 5 7 6 5 5 5 5 5 4 4 4 3 3 3 3 3 3 3 4 4 5 5 3 2 2 2 2 2 2
2 2 1 2 2 2 3 3 3 4 2 6 3 5 9 8 6 6 6 6 5 4 4 4 4 3 3 3 3 3 4 4 4 4 4 5 5 5 5 4 3 3 2 2
1 4 3 2 4 4 4 5 5 4 5 5 2 7 8 6 5 5 5 5 4 4 4 5 5 5 4 4 4 4 4 4 4 4 5 4 4 4 4 4 3 4 3 3
5 4 1 1 1 6 4 4 3 3 1 4 6 7 9 5 4 3 3 4 5 5 5 5 4 4 4 4 5 5 5 4 4 4 4 4 4 4 4 3 3 3 3 3
4 3 2 1 2 1 3 6 4 3 3 5 6 6 5 5 5 4 4 5 6 5 4 4 3 3 3 4 4 4 4 5 4 4 4 3 4 4 4 3 3 3 3 2
3 3 2 1 5 6 4 3 3 3 3 4 5 7 5 6 5 5 6 6 6 5 5 4 4 3 3 3 3 3 3 3 3 4 4 4 4 4 4 3 4 3 3 3
4 3 3 5 3 3 5 6 7 5 5 4 4 8 4 4 4 4 6 5 5 5 4 4 4 3 3 3 3 3 3 4 4 4 4 4 3 3 4 4 4 3 3 3
5 3 0 3 2 0 3 4 5 3 3 5 5 9 3 3 4 4 5 6 5 5 4 4 4 4 4 4 3 3 4 4 4 3 4 4 3 4 4 4 4 3 3 3
3 4 6 8 6 4 5 6 6 5 5 7 10 12 10 8 8 8 7 7 6 5 5 5 5 5 4 4 4 3 4 4 3 3 4 4 5 5 5 4 4 4 4 4
4 4 5 7 6 5 7 9 10 11 11 11 11 12 16 11 9 9 7 7 6 7 6 6 6 5 5 4 4 3 4 3 3 3 4 5 5 4 4 4 4 4 4 4
3 3 2 5 6 6 9 11 12 13 12 13 14 16 14 10 7 7 7 7 7 8 7 7 6 5 5 5 4 4 4 3 3 4 5 4 4 4 4 4 4 4 4 4
4 4 2 5 3 3 9 11 13 9 9 10 14 14 8 8 9 8 8 8 8 8 7 7 6 6 6 5 5 5 4 3 3 4 4 4 4 4 4 4 4 4 4 4
5 4 3 2 0 9 8 4 8 10 11 12 10 9 8 10 9 8 7 7 8 7 7 6 5 5 5 4 4 3 3 3 4 4 4 4 4 4 4 4 5 4 4 4
6 6 3 3 5 9 8 4 5 7 9 9 11 11 8 5 5 6 5 5 7 7 6 6 5 5 4 4 4 3 3 3 4 5 5 5 4 4 4 5 5 4 4 4
3 4 4 4 4 7 6 2 3 3 7 6 8 9 5 0 3 6 4 3 5 4 3 3 3 2 3 4 3 3 4 4 5 6 5 5 4 5 5 5 5 4 4 4
4 4 7 7 7 9 6 2 5 4 7 3 5 6 5 6 7 5 4 4 3 3 3 3 2 3 4 3 2 3 4 6 6 5 4 4 4 5 5 4 4 3 3 3
8 7 7 6 7 10 5 6 7 7 3 2 3 4 5 6 6 5 4 4 3 3 3 2 2 3 3 3 3 4 5 5 3 3 3 4 4 4 3 4 3 3 3 3
9 9 6 9 9 4 6 7 6 4 4 4 4 5 4 5 6 5 4 4 4 4 3 2 2 3 4 3 3 5 5 3 3 3 3 3 3 3 3 4 4 3 3 3
6 4 5 6 10 8 8 8 7 6 6 6 5 5 5 6 6 6 5 4 4 3 3 2 2 3 4 4 3 4 4 2 2 3 3 2 2 2 2 2 3 3 3 3
7 6 5 9 9 7 9 10 9 7 6 6 5 5 6 5 6 5 4 4 4 3 3 2 3 4 5 4 3 3 3 2 2 3 2 2 2 2 2 2 2 3 3 4
7 9 9 11 9 7 8 6 6 7 7 7 6 5 5 5 6 5 4 4 4 3 3 3 4 4 4 4 4 2 2 2 3 2 2 2 2 2 2 2 2 3 3 5
Wind_Direction
72 95 196 208 196 189 178 206 250 261 277 260 255 268 277 278 265 261 258 254 253 256 260 254 244 218 184 179 180 191 194 191 170 167 176 195 224 233 228 232 238 238 235 214
69 236 234 190 165 169 191 234 261 285 314 259 279 279 274 266 252 244 244 243 246 255 265 255 244 215 197 198 199 197 201 197 191 194 193 198 201 219 226 239 248 244 237 229
188 227 170 155 163 182 220 213 231 255 329 337 315 297 273 271 256 255 245 238 238 232 236 241 236 229 213 209 209 211 208 201 198 185 147 91 72 50 95 266 251 252 237 230
225 254 174 173 205 183 242 222 217 240 307 294 355 290 280 273 283 263 255 248 245 239 233 233 231 233 225 222 215 209 207 200 194 175 170 170 187 216 226 234 238 260 242 230
237 192 168 203 219 180 212 113 164 203 195 290 250 241 283 294 276 269 256 252 249 240 228 226 225 225 229 225 213 209 201 199 193 185 183 185 204 221 226 230 223 243 258 241
245 232 202 207 271 164 153 78 59 53 89 270 227 203 277 247 238 263 273 267 257 241 229 227 226 220 231 224 210 202 198 206 201 193 192 195 206 212 211 222 222 240 258 255
315 277 228 135 88 58 107 100 19 347 324 252 213 218 252 250 240 244 267 279 274 243 229 230 228 225 230 226 212 206 203 214 209 201 205 208 210 209 212 218 221 228 244 256
212 270 223 185 176 175 180 156 172 217 237 274 257 237 254 255 264 269 271 279 283 266 247 242 233 226 225 224 211 207 210 217 212 207 216 216 211 211 221 223 223 225 232 237
189 240 313 187 174 150 156 191 168 148 197 268 263 274 295 266 278 284 298 303 289 278 266 258 251 233 224 226 218 211 211 216 217 214 218 218 216 216 223 226 228 232 238 241
166 224 271 285 105 10 166 150 123 154 204 256 277 266 253 267 269 285 291 288 289 295 287 279 268 249 242 233 227 217 213 215 218 214 216 225 222 222 221 222 229 235 240 239
158 185 277 191 195 193 148 152 157 162 188 198 263 268 225 226 245 267 273 276 277 280 280 278 277 273 274 261 232 224 220 218 222 221 218 222 225 221 216 222 231 230 231 227
170 161 233 241 247 205 188 188 170 185 226 205 233 268 262 228 257 265 275 281 282 277 276 275 274 277 274 256 238 229 224 224 226 220 215 219 221 215 217 226 234 228 225 226
155 152 213 324 324 208 213 199 190 178 172 195 218 263 291 323 309 289 280 284 286 284 288 288 279 273 266 255 242 234 231 229 225 213 210 218 221 219 223 227 228 225 223 228
149 175 203 221 232 195 220 217 197 188 214 228 232 257 281 287 291 292 286 281 282 279 279 279 282 278 266 257 246 242 242 232 223 214 214 222 228 226 227 227 227 228 225 224
146 209 227 250 256 235 238 235 214 215 220 230 249 251 265 267 268 274 277 282 286 286 278 270 272 267 261 260 257 247 247 236 220 218 224 229 233 230 226 224 228 229 229 231
160 198 231 272 259 245 257 246 232 233 234 239 255 265 262 270 268 267 269 269 272 275 276 277 268 260 254 248 246 244 247 242 216 217 228 229 228 227 224 222 224 225 231 236
177 173 204 262 291 314 263 234 218 222 218 211 236 251 268 276 269 264 263 260 262 268 272 268 258 251 249 245 235 231 237 237 225 224 229 226 223 227 227 221 220 226 229 234
181 184 204 241 263 246 248 208 205 223 239 225 238 257 259 262 273 268 251 245 259 266 267 260 252 254 253 246 241 238 229 224 228 230 231 228 225 231 228 219 222 228 228 226
191 181 187 194 237 268 279 236 193 208 255 230 235 255 267 289 314 288 250 238 249 256 257 255 249 247 247 244 235 228 231 228 230 231 231 228 222 226 224 224 227 228 225 231
178 178 186 196 222 246 253 217 189 151 270 243 218 240 252 229 291 276 270 266 268 274 268 267 273 263 251 248 226 217 233 232 237 235 232 227 221 220 224 229 231 231 226 229
171 189 206 214 236 261 249 181 131 178 252 252 205 220 211 210 231 260 279 280 275 284 282 280 274 269 262 255 223 232 239 242 243 232 225 226 223 221 223 226 229 222 222 223
181 185 200 193 220 250 192 143 189 226 269 245 231 225 225 245 260 270 271 273 281 289 288 282 273 277 278 255 222 243 250 252 238 214 219 229 228 224 219 212 222 214 207 220
203 197 195 202 221 249 184 208 229 240 254 250 243 249 239 256 260 262 265 266 273 275 276 274 265 279 285 267 230 241 255 251 224 205 219 230 229 225 215 209 214 215 209 217
235 200 196 241 256 252 246 243 249 241 243 254 251 248 241 248 254 261 262 266 273 278 279 280 276 277 284 281 254 243 254 241 212 218 226 223 219 230 224 214 210 210 211 216
211 182 212 247 260 275 259 241 243 250 249 257 259 245 235 235 250 248 252 257 259 270 279 270 255 267 278 287 273 257 237 210 218 228 227 225 218 216 223 219 218 219 221 219
197 197 206 236 232 221 251 245 225 229 243 241 240 251 245 227 237 242 244 249 255 262 269 272 270 269 277 282 278 267 240 206 207 228 224 220 219 218 215 231 271 258 246 254
Height
1478 1483 1485 1484 1484 1485 1487 1490 1491 1489 1487 1487 1486 1482 1476 1473 1473 1472 1470 1470 1469 1469 1470 1472 1473 1474 1475 1475 1476 1477 1478 1479 1479 1480 1480 1481 1481 1482 1483 1483 1484 1484 1484 1484
1483 1484 1481 1481 1483 1485 1487 1490 1490 1488 1487 1487 1485 1480 1473 1470 1469 1467 1466 1465 1466 1466 1467 1468 1469 1470 1471 1472 1473 1474 1474 1475 1476 1477 1478 1478 1478 1479 1479 1480 1480 1480 1481 1481
1480 1480 1478 1480 1483 1486 1487 1489 1488 1488 1487 1487 1487 1478 1471 1466 1464 1463 1462 1462 1462 1462 1463 1464 1465 1466 1467 1468 1469 1470 1471 1471 1472 1473 1474 1474 1475 1475 1475 1475 1476 1476 1477 1477
1480 1479 1479 1480 1482 1483 1486 1484 1485 1487 1491 1493 1491 1487 1470 1466 1464 1461 1459 1458 1458 1458 1459 1460 1461 1463 1463 1464 1466 1467 1467 1468 1469 1470 1470 1470 1470 1470 1471 1472 1472 1473 1473 1473
1479 1478 1478 1480 1479 1481 1483 1483 1485 1487 1491 1494 1492 1493 1473 1466 1462 1458 1455 1454 1454 1455 1456 1457 1458 1459 1460 1462 1462 1463 1464 1465 1465 1466 1466 1467 1467 1467 1468 1468 1468 1469 1469 1469
1478 1477 1477 1478 1478 1479 1481 1485 1488 1492 1494 1494 1488 1491 1476 1467 1459 1454 1452 1452 1451 1452 1453 1454 1455 1456 1457 1459 1459 1460 1460 1461 1462 1462 1462 1463 1463 1464 1464 1464 1464 1465 1465 1465
1478 1477 1476 1477 1480 1481 1482 1488 1495 1495 1499 1491 1486 1485 1471 1456 1454 1452 1451 1450 1449 1449 1450 1450 1451 1452 1453 1454 1455 1456 1457 1457 1458 1458 1458 1459 1459 1460 1460 1460 1461 1461 1461 1460
1482 1481 1476 1476 1477 1481 1483 1484 1492 1491 1494 1490 1486 1482 1462 1452 1450 1449 1449 1448 1447 1447 1447 1447 1448 1449 1449 1450 1451 1452 1453 1453 1454 1454 1454 1455 1455 1456 1456 1457 1457 1457 1457 1457
1480 1480 1476 1475 1475 1477 1482 1484 1484 1492 1496 1494 1484 1476 1461 1449 1448 1448 1447 1446 1445 1445 1444 1444 1444 1445 1446 1447 1448 1448 1449 1449 1450 1450 1450 1451 1451 1451 1452 1452 1453 1453 1453 1453
1475 1480 1476 1475 1475 1477 1478 1481 1488 1490 1488 1485 1478 1475 1463 1450 1447 1446 1446 1445 1444 1443 1443 1442 1442 1442 1443 1443 1444 1445 1445 1446 1446 1446 1446 1447 1447 1447 1448 1448 1448 1449 1449 1449
1473 1479 1478 1477 1476 1476 1480 1482 1483 1488 1488 1486 1481 1464 1449 1447 1445 1445 1444 1443 1442 1442 1442 1441 1441 1440 1440 1440 1441 1441 1441 1441 1442 1442 1442 1442 1443 1443 1443 1444 1445 1445 1445 1445
1471 1477 1479 1476 1473 1472 1473 1475 1480 1483 1484 1488 1484 1465 1444 1444 1443 1442 1442 1441 1441 1440 1440 1439 1439 1438 1437 1437 1437 1437 1437 1437 1438 1438 1438 1438 1438 1439 1439 1440 1440 1441 1441 1441
1469 1475 1477 1474 1477 1476 1474 1473 1475 1478 1482 1486 1483 1460 1443 1442 1441 1441 1440 1439 1438 1438 1437 1437 1436 1435 1434 1434 1433 1433 1433 1433 1434 1434 1434 1434 1434 1435 1435 1435 1436 1436 1437 1437
1465 1470 1471 1468 1464 1469 1471 1471 1473 1476 1478 1477 1469 1454 1443 1442 1441 1439 1438 1437 1436 1435 1434 1433 1432 1432 1431 1430 1430 1430 1430 1430 1430 1430 1430 1430 1430 1430 1431 1431 1432 1432 1433 1433
1463 1467 1468 1466 1464 1465 1464 1464 1466 1468 1465 1464 1455 1452 1440 1438 1438 1436 1435 1434 1433 1432 1431 1430 1429 1428 1427 1427 1426 1426 1426 1426 1426 1425 1425 1425 1426 1427 1427 1428 1428 1428 1429 1429
1462 1465 1466 1464 1461 1462 1461 1458 1458 1457 1457 1454 1450 1444 1434 1433 1434 1433 1432 1431 1429 1428 1427 1426 1425 1424 1424 1423 1423 1422 1422 1422 1422 1421 1421 1422 1422 1423 1423 1423 1424 1424 1425 1425
1461 1464 1465 1463 1462 1460 1456 1447 1448 1448 1445 1445 1443 1434 1430 1431 1429 1428 1427 1427 1426 1424 1423 1422 1421 1420 1420 1419 1419 1419 1418 1418 1418 1418 1418 1418 1419 1419 1419 1419 1420 1420 1420 1421
1458 1461 1465 1464 1464 1460 1438 1435 1436 1438 1435 1435 1432 1428 1427 1427 1425 1424 1423 1423 1422 1421 1419 1418 1417 1416 1416 1416 1415 1415 1415 1415 1415 1415 1415 1415 1415 1415 1415 1415 1416 1416 1416 1417
1452 1457 1463 1464 1461 1449 1436 1432 1433 1435 1430 1425 1426 1424 1423 1423 1422 1419 1419 1418 1418 1417 1415 1414 1413 1413 1412 1412 1411 1411 1411 1411 1411 1411 1411 1411 1411 1412 1412 1412 1412 1412 1412 1412
1451 1453 1458 1460 1456 1446 1429 1427 1426 1430 1428 1418 1419 1419 1420 1421 1424 1418 1415 1415 1414 1413 1412 1411 1410 1409 1408 1408 1407 1407 1407 1407 1407 1408 1408 1408 1408 1408 1408 1408 1409 1409 1409 1409
1450 1452 1453 1454 1452 1439 1426 1425 1427 1433 1422 1414 1414 1415 1416 1417 1417 1414 1412 1411 1411 1410 1408 1407 1406 1405 1405 1405 1404 1403 1403 1403 1404 1404 1404 1404 1405 1405 1405 1405 1405 1405 1405 1405
1442 1447 1448 1449 1448 1434 1421 1423 1424 1418 1413 1412 1412 1412 1412 1412 1411 1411 1410 1409 1408 1407 1405 1404 1403 1402 1402 1402 1401 1400 1400 1400 1400 1400 1401 1401 1401 1402 1402 1402 1402 1402 1401 1401
1435 1432 1433 1432 1425 1416 1415 1414 1412 1412 1411 1410 1410 1410 1410 1409 1408 1407 1406 1406 1405 1404 1403 1402 1401 1400 1399 1399 1398 1397 1397 1397 1397 1397 1397 1397 1398 1398 1398 1398 1398 1398 1398 1397
1427 1425 1427 1425 1416 1412 1411 1410 1409 1409 1408 1407 1407 1407 1407 1406 1405 1404 1403 1402 1402 1401 1400 1399 1398 1397 1396 1396 1395 1394 1394 1394 1393 1393 1394 1394 1394 1394 1394 1394 1394 1394 1394 1394
1417 1421 1421 1418 1410 1408 1404 1403 1403 1404 1404 1404 1404 1404 1403 1402 1401 1401 1400 1399 1398 1398 1397 1397 1396 1394 1393 1393 1392 1392 1391 1391 1390 1390 1391 1391 1391 1391 1391 1391 1391 1391 1392 1392
1409 1411 1412 1406 1400 1402 1399 1398 1399 1400 1399 1399 1400 1399 1399 1399 1398 1397 1397 1396 1396 1395 1394 1394 1393 1392 1391 1390 1389 1389 1389 1388 1388 1388 1388 1388 1388 1388 1388 1388 1388 1388 1389 1389